Location: *
(50.8512°N, 5.6907°E)
Time: 18:19:58
(UTC+00:00)

USA 32 - Pass Details

Date: 09 April 2020
Orbit: 777 x 783 km, 85.0° (Epoch: 22 April)

Event Time Altitude Azimuth Distance (km) Brightness Sun altitude
Rises 20:16:57 0° 357° (N) 3,276 7.9 -16.9°
Reaches altitude 10° 20:19:25 10° 3° (N) 2,343 7.0 -17.2°
Maximum altitude 20:24:29 47° 77° (ENE) 1,022 4.4 -17.8°
Enters shadow 20:26:23 33° 129° (SE) 1,292 4.6 -18.1°
